EW2129 Weather Reports


time (UTC)temp
C
wind
direction
speed
KPH
gust
KPH
rain 1hr
cm
rain 24hr
cm
rain mn
cm
humidity
%
barometer
mb
20260505200048 12 281 8.0 27.4 0.03 0.03 0.03 72 1004.8
20260505194542 13 360 9.7 25.7 0.00 0.00 0.00 66 1004.1
20260505193040 15 311 9.7 37.0 0.00 0.00 0.00 62 1004.0
20260505191541 16 274 11.3 32.2 0.00 0.00 0.00 56 1003.7
20260505190009 17 360 14.5 29.0 0.00 0.00 0.00 55 1003.4
20260505184507 17 360 14.5 29.0 0.00 0.00 0.00 55 1003.4
20260505183003 17 360 17.7 30.6 0.00 0.00 0.00 58 1003.4
20260505181503 17 360 14.5 33.8 0.00 0.00 0.00 58 1003.3
20260505180107 17 360 19.3 35.4 0.00 0.00 0.00 58 1003.0
20260505174610 17 257 12.9 35.4 0.00 0.00 0.00 61 1002.6
20260505173054 17 360 16.1 35.4 0.00 0.00 0.00 60 1002.6
20260505171553 17 273 19.3 30.6 0.00 0.00 0.00 61 1002.3
20260505170051 18 261 12.9 27.4 0.00 0.00 0.00 62 1002.3
20260505164552 18 360 20.9 33.8 0.00 0.00 0.00 63 1002.3
20260505163018 17 311 14.5 30.6 0.00 0.00 0.00 67 1002.2
20260505161517 17 360 14.5 32.2 0.00 0.00 0.00 68 1002.3
20260505153011 17 360 12.9 33.8 0.00 0.00 0.00 70 1001.0
20260505151511 18 360 19.3 37.0 0.00 0.00 0.00 69 1001.1
20260505124530 16 360 20.9 33.8 0.00 0.00 0.00 73 998.8
20260505123033 16 360 16.1 29.0 0.00 0.00 0.00 73 998.9
20260505121523 16 192 16.1 30.6 0.00 0.00 0.00 73 998.7
20260505120023 16 200 14.5 29.0 0.00 0.00 0.00 73 998.7
20260505114513 16 194 14.5 32.2 0.00 0.00 0.00 73 998.6
20260505113010 15 189 12.9 29.0 0.00 0.00 0.00 73 998.3
20260505111516 15 360 14.5 29.0 0.00 0.00 0.00 74 998.2
20260505101606 14 360 14.5 24.1 0.00 0.00 0.00 80 997.9
20260505100100 14 199 12.9 24.1 0.00 0.00 0.00 80 997.3
20260505094546 14 195 12.9 24.1 0.00 0.00 0.00 80 997.4
20260505093046 13 360 14.5 24.1 0.00 0.00 0.00 80 997.4
20260505091542 13 182 12.9 27.4 0.00 0.00 0.00 80 997.3
20260505090010 13 200 11.3 27.4 0.00 0.00 0.00 80 997.2
20260505084507 13 169 12.9 27.4 0.00 0.00 0.00 80 997.0
20260505083110 13 153 11.3 20.9 0.00 0.00 0.00 79 996.9
20260505081535 14 165 11.3 22.5 0.00 0.00 0.00 78 997.3
20260505080044 15 192 9.7 19.3 0.00 0.00 0.00 78 997.6
20260505080037 15 196 9.7 19.3 0.00 0.00 0.00 78 997.6
20260505074529 15 198 16.1 32.2 0.00 0.00 0.00 76 997.7
20260505073036 15 360 14.5 29.0 0.00 0.00 0.00 77 997.4
20260505071528 15 166 16.1 30.6 0.00 0.00 0.00 76 997.5
20260505070028 16 148 14.5 30.6 0.00 0.00 0.00 76 997.4
20260505064523 16 190 12.9 27.4 0.00 0.00 0.00 75 997.6
20260505063020 16 198 11.3 22.5 0.00 0.00 0.00 76 997.8
20260505061524 16 192 12.9 27.4 0.00 0.00 0.00 76 998.0
20260505060015 15 196 16.1 27.4 0.00 0.00 0.00 77 998.2
20260505054515 15 360 16.1 30.6 0.00 0.00 0.00 76 998.3
20260505053027 15 360 17.7 41.8 0.00 0.00 0.00 75 998.5
20260505051528 15 360 14.5 30.6 0.00 0.00 0.00 77 998.4
20260505041509 16 360 12.9 30.6 0.00 0.00 0.00 73 998.6
20260505040006 16 192 14.5 32.2 0.00 0.00 0.00 75 998.6
20260505034504 16 192 17.7 30.6 0.00 0.00 0.00 74 998.5
20260505033005 16 175 12.9 29.0 0.00 0.00 0.00 73 998.6
20260505031600 16 200 16.1 27.4 0.00 0.00 0.00 73 999.1
20260505024559 16 186 11.3 20.9 0.00 0.00 0.00 72 999.0
20260505023104 16 172 16.1 30.6 0.00 0.00 0.00 71 999.0
20260505021556 16 167 11.3 22.5 0.00 0.00 0.00 68 999.1
20260505020057 16 360 12.9 25.7 0.00 0.00 0.00 65 999.1
20260505014558 17 360 16.1 33.8 0.00 0.00 0.00 61 999.1
20260505013057 17 201 22.5 38.6 0.00 0.00 0.00 57 999.4
20260505011531 17 178 12.9 22.5 0.00 0.00 0.00 55 998.8
20260505010030 18 360 12.9 24.1 0.00 0.00 0.00 53 998.9
20260505004520 18 165 11.3 17.7 0.00 0.00 0.00 50 998.9
20260505003020 18 180 8.0 16.1 0.00 0.00 0.00 47 999.0
20260505001518 19 190 11.3 17.7 0.00 0.00 0.00 45 999.0
20260505000032 20 200 9.7 17.7 0.00 0.00 0.00 42 999.0
20260504234511 20 170 16.1 25.7 0.00 0.00 0.00 41 999.2
20260504233011 20 360 14.5 33.8 0.00 0.00 0.00 39 999.4
20260504231511 21 360 16.1 33.8 0.00 0.00 0.00 38 999.6
20260504230012 21 193 19.3 33.8 0.00 0.00 0.00 36 999.7
20260504224507 21 360 17.7 41.8 0.00 0.00 0.00 35 999.8
20260504223006 22 202 24.1 46.7 0.00 0.00 0.00 36 999.9
20260504221548 22 360 22.5 46.7 0.00 0.00 0.00 38 999.8
20260504220035 22 186 24.1 40.2 0.00 0.00 0.00 41 999.9
20260504214530 22 360 17.7 38.6 0.00 0.00 0.00 41 999.9
20260504213033 22 196 22.5 40.2 0.00 0.00 0.00 41 999.9
20260504211532 22 191 24.1 45.1 0.00 0.00 0.00 42 999.7
20260504210025 22 360 24.1 37.0 0.00 0.00 0.00 42 999.7
20260504204525 22 186 20.9 41.8 0.00 0.00 0.00 43 999.6
20260504203020 22 360 20.9 41.8 0.00 0.00 0.00 45 999.8
20260504201518 22 198 20.9 41.8 0.00 0.00 0.00 45 1000.0